Location: Star Camp Observatory
(34.2910°N, 116.3827°W)
Time: 22:22:54
(UTC-07:00)

Hubble Space Telescope - Visible Passes

Search period start: 19 March 2019 00:00
Search period end: 29 March 2019 00:00
Orbit: 537 x 540 km, 28.5° (Epoch: 18 March)

Date Brightness Start Highest point End Pass type
(mag) Time Alt. Az. Time Alt. Az. Time Alt. Az.
23 Mar 2.9 19:44:55 10° S 19:46:46 13° SSE 19:48:24 10° SE visible
24 Mar 2.7 19:33:42 10° SSW 19:36:10 15° SSE 19:38:39 10° ESE visible
24 Mar 3.2 21:13:11 10° SW 21:14:11 16° SW 21:14:11 16° SW visible
25 Mar 2.5 19:22:42 10° SSW 19:25:35 18° SSE 19:28:29 10° ESE visible
25 Mar 2.6 21:02:34 10° WSW 21:04:32 23° SW 21:04:32 23° SW visible
26 Mar 2.0 20:52:01 10° WSW 20:54:48 31° SSW 20:54:48 31° SSW visible
27 Mar 1.6 20:41:28 10° WSW 20:45:02 36° S 20:45:02 36° S visible
28 Mar 1.5 20:30:56 10° WSW 20:34:44 36° S 20:35:13 35° SSE visible
